Weather in Paide

Estonia     58°53′13″N   25°34′11″E
temp.,
°C
wind,
m/s
gust,
m/s
humid.,
%
clouds,
%
prec.,
mm/h
press.,
hPa
HPBL,
m
21 april, wed
wed2100:00+5ese3977100 0.0 1013294
03:00+4se2687100 0.0 1011165
06:00+3se249594 0.0 100990
09:00+7se2476100 0.0 1007344
12:00+11sse225952 0.0 10051137
15:00+12wsw235297 1.1 10031350
18:00+12nw255792 1.2 10011188
21:00+7wnw22765 1.3 100118
22 april, thu
thu2200:00+4sw228256 0.0 100124
03:00+3ssw258237 0.0 100191
06:00+3ssw3119189 0.0 1001385
09:00+6sw596911 0.0 1003755
12:00+8sw5844100 0.0 10041762
15:00+10sw4736100 0.0 10042193
18:00+9sw444897 0.2 10031377
21:00+5sse117056 0.6 100315
23 april, fri
fri2300:00+2sse248896 0.5 100289
03:00+3s388991 0.5 1002695
06:00+2sse389488 0.1 1001578
09:00+2sse4792100 0.3 1002684
12:00+3sse3793100 0.4 1002646
15:00+3s3694100 1.0 1004539
18:00+4sw348685 0.4 1005648
21:00+3wsw3591100 1.0 1006386
24 april, sat
sat2400:00+2sw3696100 0.3 1007409
03:00+1ssw3697100 0.4 1006360
06:00+1ssw2598100 0.4 1006250
09:00+1sw1398100 0.9 1006216
12:00+3se1280100 0.4 1006767
15:00+5ene1272100 0.9 1007917
18:00+5nne3477100 0.7 1008828
21:00+2nnw3789100 1.1 1009227
25 april, sun
sun2500:00−1nw259974 0.0 1008154
03:00+2nw3690100 0.0 1007583
06:00+1nw3693100 0.1 1007594
09:00+2wnw3697100 0.1 1006531
12:00+2nw3999100 0.4 1006491
15:00+2nw4996100 1.1 1006521
18:00+2nw41097100 0.4 1006539
21:00+2nnw41197100 0.8 1007597